Location: Big Tree
(37.5099°N, 119.6021°W)
Time: 12:41:31
(UTC+00:00)

Meteor 1-24 Rocket - Pass Details

Date: 05 August 2024
Orbit: 790 x 925 km, 81.3° (Epoch: 16 September)

Event Time Altitude Azimuth Distance (km) Brightness Sun altitude
Rises 12:27:43 0° 343° (NNW) 3,486 7.1 -7.8°
Reaches altitude 10° 12:30:15 10° 337° (NNW) 2,562 6.3 -7.3°
Maximum altitude 12:35:43 43° 268° (W) 1,260 4.2 -6.4°
Drops below altitude 10° 12:41:18 10° 199° (SSW) 2,607 5.8 -5.4°
Sets 12:43:54 0° 192° (SSW) 3,552 6.6 -4.9°
